Etusivu
METAR-TAF:

METAR-TAF

Lentoasemat :

Seinäjoen lentoasema

Seinäjoki-Ilmajoki, Suomi

Leveyspiiri: 62-41-37N, Pituuspiiri: 022-49-55E, korkeus merenpinnasta: 91 m

Tämänhetkinen sää

Tämä raportti tehtiin 34 minuuttia sitten, kello 17.20 UTC
Tuuli 3 kn idästä
Lämpötila 18°C
Kosteus 26%
Ilmanpaine 1022 hPa
selkeää

METAR: EFSI 251720Z AUTO 09003KT //// SKC 18/M02 Q1022

Aika: 20:54 (17:54 UTC)


TAF: puuttuu

Säähavainnot ja -ennusteet yli 4000 lentoasemalta (METAR- ja TAF-raportit).

Käytössä olevat sääasemat on merkitty karttaan keltaisilla ja punaisilla pisteillä.

Aseta hiiri pisteen päälle nähdäksesi sääaseman nimen.

Klikkaa sitten nähdäksesi säähavainnot ja -ennusteet.

Kartan vaihtaminen: klikkaa mustalla rastilla varustettuja vihreitä pisteitä, niin voit zoomata sisään; viivalla varustettua vihreää pistettä, niin voit zoomata ulos tai vihreitä nuolia, niin pääset viereisille kartoille.


METAR-TAF: